Home   Weather   Volta Redonda   Past weeks

Flag for Brazil Past Weather in Volta Redonda, Rio de Janeiro, Brazil — Yesterday and Last 2 Weeks

Now
72 °F

Clear.


Feels Like: 69 °F
Forecast: 65 / 89 °F
Wind: 2 mph from Southeast

Location: Galeao

Current Time: Apr 25, 2017 at 11:43:41 pm

Latest Report: Apr 25, 2017 at 11:00 pm


Visibility: 10 mi

Pressure: 29.92 "Hg

Humidity: 88%

Dew Point: 68 °F

Location of Volta RedondaLocation

Past Weather in Volta Redonda — Graph

°F

Volta Redonda Temperature Yesterday

Maximum temperature yesterday: 79 °F (at 2:00 pm)
Minimum temperature yesterday: 66 °F (at 4:00 am)
Average temperature yesterday: 72 °F

High & Low Weather Summary for the Past Weeks

 TemperatureHumidityPressure
High86 °F (Apr 11, 1:00 pm)94% (Apr 12, 7:00 pm)30.15 "Hg (Apr 12, 7:00 pm)
Low66 °F (Apr 20, 6:00 am)46% (Apr 21, 2:00 pm)29.80 "Hg (Apr 21, 3:00 pm)
Average74 °F78%30.00 "Hg
* Reported Apr 10 10:00 pm — Apr 25 10:00 pm, Volta Redonda, Weather by CustomWeather, © 2017

Note: Actual official high and low records may vary slightly from our data, if they occured in-between our weather recording intervals... More about our weather records

Advertising

Volta Redonda Weather History for the Previous 24 Hours

Scroll right to see more
 ConditionsComfort  
Time TempWeatherWind HumidityBarometerVisibility
10:00 pm
Tue, Apr 25
73 °FClear.6 mph78%29.92 "Hg10 mi
9:00 pm73 °FClear.7 mph83%29.92 "Hg10 mi
8:00 pm75 °FClear.6 mph78%29.92 "Hg10 mi
7:00 pm77 °FClear.9 mph79%29.89 "Hg10 mi
6:00 pm77 °FClear.8 mph74%29.89 "Hg10 mi
5:00 pm79 °FSunny.7 mph70%29.89 "Hg10 mi
4:00 pm81 °FSunny.7 mph62%29.86 "Hg10 mi
3:00 pm82 °FSunny.5 mph58%29.86 "Hg10 mi
2:00 pm81 °FSunny.7 mph58%29.89 "Hg10 mi
1:00 pm81 °FPassing clouds.8 mph58%29.92 "HgN/A
12:00 pm79 °FSunny.7 mph65%29.95 "Hg10 mi
11:00 am77 °FSunny.7 mph69%29.98 "Hg10 mi
10:00 am75 °FSunny.6 mph74%30.01 "Hg10 mi
9:00 am73 °FSunny.3 mph78%30.01 "Hg10 mi
8:00 am70 °FSunny.3 mph83%30.01 "Hg10 mi
7:00 am68 °FSunny.2 mph88%29.98 "Hg10 mi
6:00 am66 °FPassing clouds.1 mph94%29.98 "HgN/A
5:00 am68 °FPassing clouds.1 mph83%29.98 "HgN/A
4:00 am66 °FPassing clouds.3 mph88%29.98 "HgN/A
3:00 am68 °FPassing clouds.6 mph83%29.98 "HgN/A
2:00 am68 °FPassing clouds.3 mph83%30.01 "HgN/A
1:00 am68 °FPassing clouds.5 mph88%30.04 "HgN/A
12:00 am70 °FPassing clouds.5 mph83%30.04 "HgN/A
11:00 pm
Mon, Apr 24
72 °FPassing clouds.7 mph73%30.07 "HgN/A
Weather by CustomWeather, © 2017

See weather overviewHow to use our weather pages